Location: Wells
(51.2093°N, 2.6446°W)
Time: 13:36:21
(UTC+01:00)

CUBEBUG 2 - Pass Details

Date: 17 March 2026
Orbit: 548 x 627 km, 97.9° (Epoch: 14 April)

Event Time Altitude Azimuth Distance (km) Brightness Sun altitude
Rises 02:10:43 0° 19° (NNE) 2,900 ? -34.9°
Reaches altitude 10° 02:13:00 10° 26° (NNE) 1,998 ? -34.7°
Enters shadow 02:14:43 22° 37° (NE) 1,371 ? -34.5°
